Regional Weather Roundup
Issued by NWS

Home | Current Version | Previous Version | Text Only | Print | Product List | Glossary On
Versions: 1 2 3 4 5 6 7 8 9 10 11 12 13 14 15 16 17 18 19 20 21 22 23 24 25 26 27 28 29 30 31 32 33 34 35 36 37 38 39 40 41 42 43 44 45 46 47 48 49 50
591
ASUS44 KJAN 230510
RWRMS

MISSISSIPPI HOURLY WEATHER ROUNDUP
NATIONAL WEATHER SERVICE JACKSON MS
1200 AM CDT SAT AUG 23 2014

NOTE: "FAIR: INDICATES FEW OR NO CLOUDS BELOW 12,000 FEET WITH NO
SIGNIFICANT WEATHER AND/OR OBSTRUCTIONS TO VISIBILITY.

MSZ001>002-007>008-010>013-018>021-025>028-034>036-230600-
NORTHWEST MISSISSIPPI

CITY           SKY/WX    TMP DP  RH WIND       PRES   REMARKS
CLARKSDALE     FAIR      77  75  94 CALM      30.01F
CLEVELAND      FAIR      78  74  86 SE3       30.00F
GREENWOOD      CLEAR     75  72  90 CALM      30.02S
GREENVILLE     CLEAR     75  71  87 SE5       30.01R
GRENADA        FAIR      72  72 100 CALM      30.03S
OLIVE BRANCH   CLEAR     77  77 100 S3        30.02S
OXFORD         FAIR      75  72  88 CALM      30.04S
TUNICA         CLEAR     79  72  78 S5        30.01S
$$

MSZ003>006-009-014>017-022>024-029>033-037>039-230600-
NORTHEAST MISSISSIPPI

CITY           SKY/WX    TMP DP  RH WIND       PRES   REMARKS
BELMONT        FAIR      75  74  96 CALM      30.03F
COLUMBUS AFB   CLEAR     76  73  91 CALM      30.02F
CORINTH        FAIR      75  73  94 CALM      30.02S
GOLDN TRIANGLE CLEAR     75  68  78 W3        30.02F
STARKVILLE     FAIR      72  68  88 CALM      30.03F
TUPELO         CLEAR     79  73  82 CALM      30.02S
$$

MSZ040-058-230600-
CENTRAL MISSISSIPPI

CITY           SKY/WX    TMP DP  RH WIND       PRES   REMARKS
JACKSON INTL   CLEAR     76  74  93 CALM      30.03S
JACKSON HAWKNS CLEAR     79  73  82 CALM      30.03S
MERIDIAN KEY   CLEAR     76  73  91 CALM      30.03S
MERIDIAN NAS   CLEAR     79  73  82 N5        30.03S
RAYMOND        FAIR      73  68  83 CALM      30.03S HAZE
VICKSBURG      CLEAR     73  71  93 CALM      30.01F
$$

MSZ059>079-230600-
SOUTH MISSISSIPPI

CITY           SKY/WX    TMP DP  RH WIND       PRES   REMARKS
BROOKHAVEN     FAIR      75  75 100 CALM      30.06S FOG
COLUMBIA       FAIR      77  75  94 MISG      30.02S
HATTIESBURG    FOG       80  76  87 CALM      30.03S VSB 1
MCCOMB         CLEAR     78  74  87 CALM      30.04S
NATCHEZ        CLEAR     79  73  83 CALM      30.04S
PINE BELT      CLEAR     77  72  83 CALM      30.04F
$$

MSZ080>082-230600-
COASTAL MISSISSIPPI

CITY           SKY/WX    TMP DP  RH WIND       PRES   REMARKS
BILOXI         CLEAR     85  77  75 CALM      30.02S HX  95
PASCAGOULA     CLEAR     77  75  93 CALM      30.03R FOG
GULFPORT       CLEAR     81  75  82 CALM      30.02S
$$



USA.gov is the U.S. government's official web portal to all federal, state and local government web resources and services.